When you browse on this site, cookies collect data to enhance your experience and personalize the content and advertising you see.
Visit our Privacy Policy to learn more. By continuing to use the site, you agree to this use of cookies and data.
  • In Deutschland
  • Länderverzeichnis
  • Für 7 Tage
  • Wassertemperatur
  • Satellitenkarten
  • Wetterkarte
  • Widgets
  • user-avatar
    Anmelden

    Stündliche Wetter Dvorische

    Heute, 18 Januar, Freitag

    Zeit Temperatur Niederschläge Wind Luftdruck Luftfeuchtigkeit
    00:00 -2°C° 0.1 mm 6 m/S 725 mmHg 85%
    01:00 -1°C° 0.1 mm 5 m/S 726 mmHg 85%
    02:00 -1°C° 0 mm 4 m/S 726 mmHg 85%
    03:00 -2°C° 0.1 mm 4 m/S 727 mmHg 86%
    04:00 -2°C° 0.1 mm 4 m/S 727 mmHg 86%
    05:00 -3°C° 0.1 mm 4 m/S 728 mmHg 87%
    06:00 -4°C° 0 mm 4 m/S 729 mmHg 87%
    07:00 -5°C° 0 mm 4 m/S 729 mmHg 87%
    08:00 -6°C° 0 mm 3 m/S 730 mmHg 88%
    09:00 -7°C° 0 mm 4 m/S 730 mmHg 87%
    10:00 -7°C° 0 mm 4 m/S 731 mmHg 86%
    11:00 -7°C° 0 mm 4 m/S 732 mmHg 84%
    12:00 -7°C° 0 mm 3 m/S 732 mmHg 85%
    13:00 -7°C° 0 mm 3 m/S 733 mmHg 85%
    14:00 -6°C° 0 mm 2 m/S 733 mmHg 86%
    15:00 -6°C° 0.1 mm 2 m/S 733 mmHg 88%
    16:00 -6°C° 0.1 mm 1 m/S 733 mmHg 91%
    17:00 -6°C° 0.1 mm 1 m/S 733 mmHg 94%
    18:00 -7°C° 0.4 mm 1 m/S 733 mmHg 94%
    19:00 -7°C° 0.4 mm 1 m/S 733 mmHg 94%
    20:00 -7°C° 0.4 mm 1 m/S 733 mmHg 94%
    21:00 -9°C° 0.1 mm 2 m/S 733 mmHg 93%
    22:00 -9°C° 0.1 mm 2 m/S 734 mmHg 92%
    23:00 -9°C° 0.1 mm 2 m/S 734 mmHg 91%

    Morgen, 19 Januar, Samstag

    Zeit Temperatur Niederschläge Wind Luftdruck Luftfeuchtigkeit
    00:00 -10°C° 0 mm 2 m/S 735 mmHg 93%
    01:00 -12°C° 0 mm 2 m/S 735 mmHg 94%
    02:00 -13°C° 0 mm 2 m/S 736 mmHg 96%
    03:00 -13°C° 0 mm 2 m/S 736 mmHg 95%
    04:00 -14°C° 0 mm 3 m/S 736 mmHg 94%
    05:00 -13°C° 0 mm 3 m/S 736 mmHg 94%
    06:00 -13°C° 0.1 mm 3 m/S 736 mmHg 93%
    07:00 -12°C° 0.1 mm 3 m/S 737 mmHg 92%
    08:00 -10°C° 0.1 mm 3 m/S 737 mmHg 91%
    09:00 -9°C° 0.1 mm 3 m/S 737 mmHg 90%
    10:00 -9°C° 0.1 mm 3 m/S 738 mmHg 89%
    11:00 -8°C° 0.1 mm 3 m/S 738 mmHg 88%
    12:00 -9°C° 0.1 mm 3 m/S 738 mmHg 87%
    13:00 -9°C° 0.1 mm 3 m/S 739 mmHg 85%
    14:00 -10°C° 0.1 mm 3 m/S 739 mmHg 84%
    15:00 -10°C° 0 mm 3 m/S 739 mmHg 87%
    16:00 -12°C° 0 mm 3 m/S 740 mmHg 89%
    17:00 -12°C° 0 mm 2 m/S 740 mmHg 91%
    18:00 -12°C° 0 mm 2 m/S 740 mmHg 92%
    19:00 -13°C° 0 mm 3 m/S 741 mmHg 93%
    20:00 -13°C° 0 mm 3 m/S 741 mmHg 93%
    21:00 -13°C° 0 mm 3 m/S 741 mmHg 94%
    22:00 -13°C° 0 mm 3 m/S 741 mmHg 94%
    23:00 -13°C° 0 mm 3 m/S 741 mmHg 94%

    übermorgen, 20 Januar, Sonntag

    Zeit Temperatur Niederschläge Wind Luftdruck Luftfeuchtigkeit
    00:00 -10°C° 0 mm 3 m/S 741 mmHg 93%
    01:00 -9°C° 0 mm 3 m/S 741 mmHg 92%
    02:00 -8°C° 0 mm 3 m/S 741 mmHg 90%
    03:00 -9°C° 0 mm 4 m/S 741 mmHg 89%
    04:00 -9°C° 0 mm 4 m/S 740 mmHg 88%
    05:00 -10°C° 0 mm 5 m/S 739 mmHg 87%
    06:00 -10°C° 0.2 mm 5 m/S 739 mmHg 87%
    07:00 -10°C° 0.2 mm 5 m/S 738 mmHg 87%
    08:00 -8°C° 0.2 mm 5 m/S 738 mmHg 86%
    09:00 -7°C° 0.2 mm 5 m/S 737 mmHg 86%
    10:00 -6°C° 0.2 mm 6 m/S 737 mmHg 85%
    11:00 -5°C° 0.2 mm 6 m/S 737 mmHg 85%
    12:00 -6°C° 0.3 mm 5 m/S 737 mmHg 85%
    13:00 -6°C° 0.3 mm 5 m/S 736 mmHg 85%
    14:00 -6°C° 0.3 mm 5 m/S 736 mmHg 85%
    15:00 -7°C° 0.1 mm 5 m/S 736 mmHg 85%
    16:00 -8°C° 0.1 mm 5 m/S 737 mmHg 85%
    17:00 -8°C° 0.1 mm 5 m/S 737 mmHg 85%
    18:00 -10°C° 0 mm 4 m/S 738 mmHg 87%
    19:00 -10°C° 0 mm 3 m/S 738 mmHg 90%
    20:00 -12°C° 0 mm 2 m/S 738 mmHg 92%
    21:00 -13°C° 0 mm 3 m/S 739 mmHg 91%
    22:00 -13°C° 0 mm 3 m/S 739 mmHg 91%
    23:00 -14°C° 0 mm 3 m/S 740 mmHg 90%

    21 Januar, Montag

    Zeit Temperatur Niederschläge Wind Luftdruck Luftfeuchtigkeit
    00:00 -14°C° 0 mm 3 m/S 740 mmHg 91%
    01:00 -14°C° 0 mm 3 m/S 740 mmHg 91%
    02:00 -14°C° 0 mm 3 m/S 740 mmHg 92%
    03:00 -15°C° 0 mm 3 m/S 740 mmHg 92%
    04:00 -15°C° 0 mm 3 m/S 740 mmHg 93%
    05:00 -14°C° 0 mm 2 m/S 740 mmHg 93%
    06:00 -14°C° 0 mm 2 m/S 741 mmHg 94%
    07:00 -15°C° 0 mm 2 m/S 741 mmHg 95%
    08:00 -15°C° 0 mm 2 m/S 741 mmHg 95%
    09:00 -15°C° 0 mm 2 m/S 741 mmHg 93%
    10:00 -14°C° 0 mm 2 m/S 741 mmHg 91%
    11:00 -15°C° 0 mm 3 m/S 742 mmHg 89%
    12:00 -15°C° 0 mm 3 m/S 742 mmHg 89%
    13:00 -15°C° 0 mm 3 m/S 742 mmHg 88%
    14:00 -15°C° 0 mm 3 m/S 742 mmHg 87%
    15:00 -17°C° 0 mm 3 m/S 742 mmHg 90%
    16:00 -17°C° 0 mm 2 m/S 743 mmHg 92%
    17:00 -18°C° 0 mm 2 m/S 743 mmHg 95%
    18:00 -18°C° 0 mm 2 m/S 743 mmHg 95%
    19:00 -19°C° 0 mm 2 m/S 743 mmHg 95%
    20:00 -19°C° 0 mm 2 m/S 744 mmHg 95%
    21:00 -20°C° 0 mm 2 m/S 744 mmHg 96%
    22:00 -20°C° 0 mm 2 m/S 744 mmHg 96%
    23:00 -21°C° 0 mm 2 m/S 744 mmHg 97%

    22 Januar, Dienstag

    Zeit Temperatur Niederschläge Wind Luftdruck Luftfeuchtigkeit
    00:00 -21°C° 0 mm 2 m/S 744 mmHg 97%
    01:00 -21°C° 0 mm 2 m/S 745 mmHg 97%
    02:00 -21°C° 0 mm 2 m/S 745 mmHg 98%
    03:00 -21°C° 0 mm 2 m/S 745 mmHg 98%
    04:00 -23°C° 0 mm 2 m/S 745 mmHg 98%
    05:00 -23°C° 0 mm 2 m/S 745 mmHg 98%
    06:00 -23°C° 0 mm 2 m/S 745 mmHg 98%
    07:00 -20°C° 0 mm 1 m/S 745 mmHg 98%
    08:00 -20°C° 0 mm 1 m/S 745 mmHg 98%
    09:00 -19°C° 0 mm 1 m/S 745 mmHg 97%
    10:00 -18°C° 0 mm 1 m/S 745 mmHg 96%
    11:00 -17°C° 0 mm 1 m/S 746 mmHg 95%
    12:00 -17°C° 0 mm 1 m/S 746 mmHg 95%
    13:00 -16°C° 0 mm 1 m/S 746 mmHg 95%
    14:00 -16°C° 0 mm 1 m/S 746 mmHg 94%
    15:00 -17°C° 0 mm 1 m/S 746 mmHg 96%
    16:00 -18°C° 0 mm 1 m/S 746 mmHg 97%
    17:00 -19°C° 0 mm 1 m/S 746 mmHg 98%
    18:00 -20°C° 0 mm 1 m/S 746 mmHg 99%
    19:00 -20°C° 0 mm 1 m/S 746 mmHg 99%
    20:00 -20°C° 0 mm 0 m/S 746 mmHg 99%
    21:00 -20°C° 0 mm 1 m/S 746 mmHg 99%
    22:00 -20°C° 0 mm 1 m/S 746 mmHg 99%
    23:00 -20°C° 0 mm 1 m/S 746 mmHg 99%

    23 Januar, Mittwoch

    Zeit Temperatur Niederschläge Wind Luftdruck Luftfeuchtigkeit
    00:00 -20°C° 0 mm 1 m/S 746 mmHg 99%
    01:00 -20°C° 0 mm 1 m/S 746 mmHg 99%
    02:00 -23°C° 0 mm 2 m/S 746 mmHg 99%
    03:00 -23°C° 0 mm 2 m/S 746 mmHg 99%
    04:00 -23°C° 0 mm 2 m/S 746 mmHg 98%
    05:00 -21°C° 0 mm 2 m/S 746 mmHg 98%
    06:00 -20°C° 0 mm 2 m/S 746 mmHg 98%
    07:00 -19°C° 0 mm 2 m/S 746 mmHg 97%
    08:00 -19°C° 0 mm 3 m/S 746 mmHg 97%
    09:00 -17°C° 0 mm 3 m/S 746 mmHg 96%
    10:00 -16°C° 0 mm 3 m/S 745 mmHg 94%
    11:00 -14°C° 0 mm 3 m/S 745 mmHg 93%
    12:00 -13°C° 0 mm 3 m/S 745 mmHg 93%
    13:00 -12°C° 0 mm 3 m/S 745 mmHg 92%
    14:00 -11°C° 0 mm 4 m/S 745 mmHg 91%
    15:00 -10°C° 0 mm 3 m/S 745 mmHg 91%
    16:00 -10°C° 0 mm 3 m/S 745 mmHg 91%
    17:00 -12°C° 0 mm 3 m/S 745 mmHg 92%
    18:00 -13°C° 0 mm 3 m/S 745 mmHg 92%
    19:00 -14°C° 0 mm 3 m/S 745 mmHg 92%
    20:00 -15°C° 0 mm 3 m/S 745 mmHg 93%
    21:00 -15°C° 0 mm 3 m/S 746 mmHg 93%
    22:00 -14°C° 0 mm 3 m/S 746 mmHg 93%
    23:00 -14°C° 0 mm 3 m/S 746 mmHg 94%
    Mehr zeigen